Погода в Ферни

Канада     49°30′17″N   115°04′07″W
темп.,
°C
ветер,
м/с
пор.,
м/с
влажн.,
%
обл.,
%
осадки,
мм/ч
давл.,
гПа
погр.,
м
18 января, вт
вт1801:00−4ююз2498100 0.6 1012146
04:00−10всв3496100 2.3 1020257
07:00−11всв3495100 1.8 1023262
10:00−12всв3492100 2.6 1026282
13:00−10всв2391100 0.7 1025396
16:00−12всв3394100 1.1 1028163
19:00−17всв3395100 0.1 103478
22:00−17всв3394100 0.2 103561
19 января, ср
ср1901:00−18всв239498 0.0 103644
04:00−18св2295100 0.1 103635
07:00−19св219799 0.0 103719
10:00−11з119384 0.1 1033141
13:00−8зюз2293100 0.0 1031349
16:00−12юз11100100 0.1 103316
19:00−17юв11100100 0.0 10389
22:00−15ююв1199100 0.1 103713
20 января, чт
чт2001:00−13ююз1399100 0.1 103557
04:00−12ююз2497100 0.4 1031110
07:00−11юз2497100 0.5 1028110
10:00−7юз3597100 0.8 1022221
13:00−5юз4696100 0.7 1017286
16:00−4юз249891 1.3 1017172
19:00−6юз239896 0.3 102080
22:00−6юз23100100 0.4 1022111
21 января, пт
пт2101:00−6зюз1198100 0.3 102614
04:00−6юз119897 0.4 102942
07:00−8ююз1299100 0.1 103268
10:00−7юз2397100 0.2 1033235
13:00−5юз2394100 0.3 1031372
16:00−6зюз229899 0.6 1032140
19:00−10ююз1198100 0.3 103610
22:00−11ююз1198100 0.7 103710
22 января, сб
сб2201:00−12ю1198100 0.3 103810
04:00−12ююв119899 0.4 103912
07:00−12ююв1198100 0.1 103910
10:00−7юз2295100 0.2 1036259
13:00−6юз2293100 0.1 1034435
16:00−7юз2398100 0.2 1035352
19:00−8юз2398100 0.1 1036108
22:00−8юз1299100 0.2 103589